Location: Most
(50.5133°N, 13.6207°E)
Time: 10:13:22
(UTC+01:00)

Oscar 11 - Pass Details

Date: 04 December 2021
Orbit: 611 x 625 km, 97.6° (Epoch: 26 January)

Event Time Altitude Azimuth Distance (km) Brightness Sun altitude
Rises 16:53:08 0° 178° (S) 2,894 10.8 -7.7°
Reaches altitude 10° 16:55:22 10° 183° (S) 1,994 10.1 -8.0°
Maximum altitude 16:59:37 52° 261° (W) 783 8.1 -8.6°
Drops below altitude 10° 17:03:54 10° 338° (NNW) 2,012 9.7 -9.3°
Sets 17:06:09 0° 343° (NNW) 2,924 10.5 -9.6°
